DW2806 Weather Reports


time (UTC)temp
F
wind
direction
speed
knots
gust
knots
rain 1hr
in
rain 24hr
in
rain mn
in
humidity
%
barometer
mb
20260906154528 67 266 0.0 5.2 0.00 0.00 0.00 80 1025.7
20260906153028 66 267 0.0 0.0 0.00 0.00 0.00 79 1025.7
20260906151527 67 266 0.0 0.9 0.00 0.00 0.00 79 1025.7
20260906150028 65 313 0.0 3.5 0.00 0.00 0.00 82 1025.7
20260906144521 63 322 0.0 0.0 0.00 0.00 0.00 84 1025.7
20260906143028 64 322 0.0 1.7 0.00 0.00 0.00 83 1025.7
20260906141518 64 324 0.0 0.0 0.00 0.00 0.00 86 1025.7
20260906140027 63 324 0.0 3.5 0.00 0.00 0.00 85 1025.7
20260906134511 61 322 0.0 3.5 0.00 0.00 0.00 88 1025.7
20260906133011 60 324 0.0 0.0 0.00 0.00 0.00 88 1025.7
20260906131515 60 324 0.0 0.0 0.00 0.00 0.00 90 1025.7
20260906130009 60 324 0.0 5.2 0.00 0.00 0.00 92 1025.7
20260906124505 60 331 0.0 0.0 0.00 0.00 0.00 93 1025.7
20260906123002 59 331 0.0 3.5 0.00 0.00 0.00 94 1025.7
20260906121502 59 335 0.0 0.0 0.00 0.00 0.00 95 1025.7
20260906120113 58 335 0.0 0.0 0.00 0.00 0.00 94 1025.7
20260906114558 57 335 0.0 0.0 0.00 0.00 0.00 94 1025.7
20260906113100 57 335 0.0 0.0 0.00 0.00 0.00 94 1025.7
20260906111607 57 335 0.0 0.0 0.00 0.00 0.00 94 1025.7
20260906110053 57 335 0.0 0.0 0.00 0.00 0.00 93 1025.7
20260906104550 57 335 0.0 0.0 0.00 0.00 0.00 93 1025.7
20260906103049 57 335 0.0 0.0 0.00 0.00 0.00 93 1025.7
20260906101649 57 335 0.0 0.0 0.00 0.00 0.00 93 1025.7
20260906100045 57 335 0.0 0.0 0.00 0.00 0.00 93 1025.7
20260906094544 58 335 0.0 0.0 0.00 0.00 0.00 93 1025.7
20260906093046 58 335 0.0 0.0 0.00 0.00 0.00 93 1025.7
20260906091541 58 335 0.0 0.0 0.00 0.00 0.00 93 1025.7
20260906090041 58 335 0.0 0.0 0.00 0.00 0.00 92 1025.7
20260906084548 59 335 0.0 0.0 0.00 0.00 0.00 92 1025.7
20260906083040 59 335 0.0 0.0 0.00 0.00 0.00 92 1025.7
20260906081538 59 335 0.0 0.0 0.00 0.00 0.00 92 1025.7
20260906080037 59 335 0.0 0.0 0.00 0.00 0.00 92 1025.7
20260906074536 59 335 0.0 0.0 0.00 0.00 0.00 92 1025.7
20260906073040 60 335 0.0 0.0 0.00 0.00 0.00 92 1025.7
20260906071537 60 335 0.0 0.0 0.00 0.00 0.00 92 1025.7
20260906070032 60 335 0.0 0.0 0.00 0.00 0.00 92 1025.7
20260906064529 61 335 0.0 0.0 0.00 0.00 0.00 93 1025.7
20260906063029 61 335 0.0 0.0 0.00 0.00 0.00 93 1025.7
20260906061528 61 335 0.0 0.0 0.00 0.00 0.00 93 1025.7
20260906060034 61 335 0.0 0.0 0.00 0.00 0.00 93 1025.7
20260906054527 62 335 0.0 0.0 0.00 0.00 0.00 92 1025.7
20260906053026 62 335 0.0 0.0 0.00 0.00 0.00 92 1025.7
20260906051525 62 335 0.0 0.0 0.00 0.00 0.00 93 1025.7
20260906050026 62 335 0.0 0.0 0.00 0.00 0.00 92 1025.7
20260906044523 62 335 0.0 0.0 0.00 0.00 0.00 92 1025.7
20260906043029 62 335 0.0 0.0 0.00 0.00 0.00 92 1025.7
20260906041522 62 335 0.0 0.0 0.00 0.00 0.00 92 1025.7
20260906040028 62 335 0.0 0.0 0.00 0.00 0.00 92 1025.7
20260906034532 62 335 0.0 0.0 0.00 0.00 0.00 92 1025.7
20260906033026 62 335 0.0 0.0 0.00 0.00 0.00 92 1025.7
20260906031520 62 335 0.0 0.0 0.00 0.00 0.00 92 1025.7
20260906030020 62 335 0.0 0.0 0.00 0.00 0.00 92 1025.7
20260906024518 62 335 0.0 0.0 0.00 0.00 0.00 92 1025.7
20260906023018 62 335 0.0 0.0 0.00 0.00 0.00 91 1025.7
20260906021520 62 335 0.0 0.0 0.00 0.00 0.00 91 1025.7
20260906020017 62 335 0.0 0.0 0.00 0.00 0.00 91 1025.7
20260906014526 63 335 0.0 0.0 0.00 0.00 0.00 91 1025.7
20260906013016 63 335 0.0 0.0 0.00 0.00 0.00 91 1025.7
20260906011531 63 335 0.0 0.0 0.00 0.00 0.00 90 1025.7
20260906010015 63 335 0.0 0.0 0.00 0.00 0.00 90 1025.7
20260906004524 63 335 0.0 0.0 0.00 0.00 0.00 90 1025.7
20260906003013 63 335 0.0 0.0 0.00 0.00 0.00 90 1025.7
20260906001517 63 335 0.0 0.0 0.00 0.00 0.00 89 1025.7
20260906000013 63 335 0.0 0.0 0.00 0.00 0.00 89 1025.7
20260905234512 63 335 0.0 0.0 0.00 0.00 0.00 89 1025.7
20260905233011 63 335 0.0 0.0 0.00 0.00 0.00 88 1025.7
20260905231511 64 335 0.0 0.0 0.00 0.00 0.00 87 1025.7
20260905230015 64 335 0.0 0.0 0.00 0.00 0.00 87 1025.7
20260905224522 65 335 0.0 0.0 0.00 0.00 0.00 86 1025.7
20260905223009 65 335 0.0 0.0 0.00 0.00 0.00 85 1025.7
20260905221508 65 335 0.0 0.0 0.00 0.00 0.00 86 1025.7
20260905220008 65 335 0.0 0.0 0.00 0.00 0.00 86 1025.7
20260905214507 65 335 0.0 0.0 0.00 0.00 0.00 88 1025.7
20260905213007 65 335 0.0 0.0 0.00 0.00 0.00 88 1025.7
20260905211506 65 335 0.0 1.7 0.00 0.00 0.00 88 1025.7
20260905210010 65 335 0.0 0.0 0.00 0.00 0.00 88 1025.7
20260905204505 65 337 0.0 0.0 0.00 0.00 0.00 88 1025.7
20260905203005 65 337 0.0 0.0 0.00 0.00 0.00 88 1025.7
20260905201504 66 344 0.0 6.1 0.00 0.00 0.00 86 1025.7
20260905200004 68 127 0.0 0.9 0.00 0.00 0.00 84 1025.7
20260905194503 68 283 0.0 3.5 0.00 0.00 0.00 84 1025.7
20260905193003 68 324 0.0 0.0 0.00 0.00 0.00 84 1025.7
20260905191501 68 324 0.0 0.0 0.00 0.00 0.00 84 1025.7
20260905190001 69 324 0.0 5.2 0.00 0.00 0.00 83 1025.7
20260905184604 69 321 0.0 4.3 0.00 0.00 0.00 82 1025.7
20260905183101 69 308 0.0 4.3 0.00 0.00 0.00 82 1025.7
20260905181603 68 325 0.0 5.2 0.00 0.00 0.00 83 1025.7
20260905174557 67 312 0.0 5.2 0.00 0.00 0.00 84 1025.7
20260905173056 68 304 0.0 5.2 0.00 0.00 0.00 84 1025.7
20260905171556 67 322 0.0 7.0 0.00 0.00 0.00 85 1025.7
20260905170059 68 281 0.0 0.0 0.00 0.00 0.00 84 1025.7
20260905164555 69 329 0.0 7.0 0.00 0.00 0.00 82 1025.7
20260905163053 71 316 0.0 6.1 0.00 0.00 0.00 80 1025.7
20260905161552 71 296 0.0 4.3 0.00 0.00 0.00 81 1025.7
20260905160054 72 310 0.0 3.5 0.00 0.00 0.00 81 1025.7